Lander, WY

10:28 PM MDT on May 20, 2018 (GMT -0600)
Hunt

Weather History for KLND - February, 2012

Change the Weather History Date:

Friday, February 17, 2012

  Actual Average Record
Temperature  
Mean Temperature 32 °F 26 °F  
Max Temperature 41 °F 37 °F 59 °F (1996)
Min Temperature 22 °F 14 °F -24 °F (1942)
Degree Days  
Heating Degree Days 33 39  
Month to date heating degree days 664 704  
Since 1 July heating degree days 4883 5294  
Cooling Degree Days 0 0  
Month to date cooling degree days 0 0  
Year to date cooling degree days 0 0  
Moisture  
Dew Point 13 °F    
Average Humidity 51    
Maximum Humidity 68    
Minimum Humidity 33    
Precipitation  
Precipitation 0.00 in 0.02 in 0.64 in (1991)
Month to date precipitation 0.34 0.31  
Year to date precipitation 0.78 0.72  
Snow  
Snow 0.00 in 0.40 in - ()
Month to date snowfall 7.9 6.0  
Since 1 July snowfall 45.3 49.3  
Snow Depth 0.00 in    
Sea Level Pressure  
Sea Level Pressure 30.12 in    
Wind  
Wind Speed 5 mph (SSW)    
Max Wind Speed 10 mph    
Max Gust Speed -    
Visibility 10 miles    
Events      
T = Trace of Precipitation, MM = Missing Value Source: NWS Daily Summary

Daily Weather History Graph

Daily Weather History Graph

Search for Another Location

Airport or City:

Astronomy

Feb. 17, 2012 Rise Set
Actual Time 7:09 AM MST 5:48 PM MST
Civil Twilight 6:40 AM MST 6:17 PM MST
Nautical Twilight 6:07 AM MST 6:50 PM MST
Astronomical Twilight 5:35 AM MST 7:23 PM MST
Moon 4:08 AM MST (2/17) 1:40 PM MST (2/17)
Length of Visible Light 11h 36m
Length of Day
10h 38m
Waning Crescent, 18% of the Moon is Illuminated
Feb 17
Waning Crescent
Feb 21
New
Feb 29
First Quarter
Mar 8
Full
Mar 14
Last Quarter

Hourly Weather History & Observations

Time (MST) Temp. Windchill Dew Point Humidity Pressure Visibility Wind Dir Wind Speed Gust Speed Precip Events Conditions
12:53 AM 28.0 °F 20.8 °F 10.0 °F 47% 30.04 in 10.0 mi WSW 6.9 mph - N/A   Clear
1:53 AM 25.0 °F 16.3 °F 12.9 °F 60% 30.04 in 10.0 mi ESE 8.1 mph - N/A   Clear
2:53 AM 24.1 °F 16.0 °F 15.1 °F 69% 30.04 in 10.0 mi ENE 6.9 mph - N/A   Mostly Cloudy
3:53 AM 25.0 °F 17.1 °F 14.0 °F 63% 30.04 in 10.0 mi North 6.9 mph - N/A   Mostly Cloudy
4:53 AM 26.1 °F 20.5 °F 10.9 °F 53% 30.05 in 10.0 mi SSE 4.6 mph - N/A   Mostly Cloudy
5:53 AM 27.0 °F 20.5 °F 10.0 °F 49% 30.07 in 10.0 mi SE 5.8 mph - N/A   Scattered Clouds
6:53 AM 25.0 °F 20.7 °F 10.0 °F 53% 30.12 in 10.0 mi WNW 3.5 mph - N/A   Clear
7:53 AM 24.1 °F 19.7 °F 10.9 °F 57% 30.17 in 10.0 mi WNW 3.5 mph - N/A   Overcast
8:53 AM 28.9 °F 20.4 °F 12.0 °F 49% 30.16 in 10.0 mi WSW 9.2 mph - N/A   Overcast
9:53 AM 32.0 °F 25.6 °F 10.9 °F 42% 30.15 in 10.0 mi West 6.9 mph - N/A   Overcast
10:53 AM 34.0 °F - 12.9 °F 42% 30.16 in 10.0 mi Calm Calm - N/A   Mostly Cloudy
11:53 AM 37.9 °F 35.5 °F 15.1 °F 39% 30.16 in 10.0 mi ENE 3.5 mph - N/A   Mostly Cloudy
12:53 PM 37.9 °F 35.5 °F 14.0 °F 38% 30.13 in 10.0 mi Variable 3.5 mph - N/A   Partly Cloudy
1:53 PM 39.0 °F 35.7 °F 14.0 °F 36% 30.12 in 10.0 mi ESE 4.6 mph - N/A   Clear
2:53 PM 39.9 °F 35.8 °F 12.9 °F 33% 30.12 in 10.0 mi ESE 5.8 mph - N/A   Clear
3:53 PM 37.9 °F 34.4 °F 12.9 °F 36% 30.12 in 10.0 mi South 4.6 mph - N/A   Clear
4:53 PM 35.1 °F 32.2 °F 17.1 °F 48% 30.13 in 10.0 mi South 3.5 mph - N/A   Clear
5:53 PM 30.9 °F - 15.1 °F 52% 30.14 in 10.0 mi Calm Calm - N/A   Clear
6:53 PM 28.0 °F 20.8 °F 14.0 °F 56% 30.17 in 10.0 mi WSW 6.9 mph - N/A   Clear
7:53 PM 27.0 °F - 14.0 °F 58% 30.17 in 10.0 mi Calm Calm - N/A   Clear
8:53 PM 27.0 °F 17.3 °F 12.9 °F 56% 30.15 in 10.0 mi WSW 10.4 mph - N/A   Clear
9:53 PM 26.1 °F 16.8 °F 12.9 °F 58% 30.14 in 10.0 mi West 9.2 mph - N/A   Clear
10:53 PM 23.0 °F 17.0 °F 12.9 °F 65% 30.14 in 10.0 mi SW 4.6 mph - N/A   Clear
11:53 PM 21.9 °F 17.2 °F 14.0 °F 72% 30.11 in 10.0 mi SE 3.5 mph - N/A   Clear